This is the latest recevied weather packets stored in our database for station/object KI5NXU. If no packets are shown the sender has not sent any weather packets the latest 10 day(s).
| Time | Temp. | Humidity | Pressure | Rain* | Wind** | Luminosity | Snow |
|---|---|---|---|---|---|---|---|
| 1778039474 | 14.44° C | 81% | 1010 hPa | 0 mm | - | 0 W/m² | - |
| 1778039171 | 14.44° C | 81% | 1009.9 hPa | 0 mm | - | 0 W/m² | - |
| 1778038868 | 14.44° C | 81% | 1009.6 hPa | 0 mm | - | 0 W/m² | - |
| 1778038565 | 14.44° C | 80% | 1009.8 hPa | 0 mm | - | 0 W/m² | - |
| 1778038262 | 15° C | 80% | 1009.8 hPa | 0 mm | - | 0 W/m² | - |
| 1778037960 | 15° C | 80% | 1009.9 hPa | 0 mm | - | 0 W/m² | - |
| 1778037656 | 15° C | 80% | 1009.9 hPa | 0 mm | - | 0 W/m² | - |
| 1778037354 | 15° C | 80% | 1009.6 hPa | 0 mm | - | 0 W/m² | - |
| 1778037050 | 15.56° C | 79% | 1009.4 hPa | 0 mm | - | 0 W/m² | - |
| 1778036749 | 15.56° C | 79% | 1009.4 hPa | 0 mm | - | 0 W/m² | - |
| 1778036445 | 15.56° C | 79% | 1009.6 hPa | 0 mm | - | 0 W/m² | - |
| 1778036142 | 15.56° C | 78% | 1009.3 hPa | 0 mm | - | 0 W/m² | - |
| 1778035838 | 16.11° C | 77% | 1009.3 hPa | 0 mm | - | 0 W/m² | - |
| 1778035536 | 16.11° C | 78% | 1009 hPa | 0 mm | - | 0 W/m² | - |
| 1778035232 | 16.11° C | 78% | 1008.4 hPa | 0 mm | - | 0 W/m² | - |
| 1778034928 | 16.67° C | 77% | 1008.7 hPa | 0 mm | - | 0 W/m² | - |
| 1778034626 | 16.67° C | 76% | 1008.4 hPa | 0 mm | - | 0 W/m² | - |
| 1778034323 | 16.67° C | 76% | 1008.4 hPa | 0 mm | - | 0 W/m² | - |
| 1778034021 | 17.22° C | 76% | 1008.3 hPa | 0 mm | - | 0 W/m² | - |
| 1778033718 | 17.22° C | 76% | 1008.2 hPa | 0 mm | - | 0 W/m² | - |
| 1778033415 | 17.78° C | 75% | 1008.4 hPa | 0 mm | - | 0 W/m² | - |
| 1778033113 | 18.33° C | 74% | 1007.8 hPa | 0 mm | - | 0 W/m² | - |
| 1778032810 | 18.89° C | 74% | 1007.7 hPa | 0 mm | - | 0 W/m² | - |
| 1778032507 | 18.89° C | 73% | 1007.4 hPa | 0 mm | - | 0 W/m² | - |
| 1778032204 | 19.44° C | 72% | 1007.1 hPa | 0 mm | - | 0 W/m² | - |
* Rain latest hour (hover to see other rain measurements)
** Current wind speed in m/s (hover to see current wind gust speed)